Universal City, TX

3:17 AM CST on January 19, 2017 (GMT -0600)
Randolph Air Force Base

Weather History for KRND - July, 2012

Change the Weather History Date:

Saturday, July 28, 2012

  Actual Average Record
Temperature  
Mean Temperature 84 °F -  
Max Temperature 97 °F 94 °F 102 °F (1998)
Min Temperature 71 °F 72 °F 69 °F (2000)
Cooling Degree Days 18    
Growing Degree Days 34 (Base 50)    
Moisture  
Dew Point 71 °F    
Average Humidity 74    
Maximum Humidity 100    
Minimum Humidity 36    
Precipitation  
Precipitation 0.00 in - - ()
Sea Level Pressure  
Sea Level Pressure 30.08 in    
Wind  
Wind Speed 4 mph (South)    
Max Wind Speed 10 mph    
Max Gust Speed -    
Visibility 10 miles    
Events      
Averages and records for this station are not official NWS values.
T = Trace of Precipitation, MM = Missing Value Source: NWS Daily Summary

Daily Weather History Graph

Daily Weather History Graph

Search for Another Location

Airport or City:

Trip Planner

Search our weather history database for the weather conditions in past years. The results will help you decide how hot, cold, wet, or windy it might be!

Date:

Astronomy

Jul. 28, 2012 Rise Set
Actual Time 6:50 AM CDT 8:27 PM CDT
Civil Twilight 6:24 AM CDT 8:53 PM CDT
Nautical Twilight 5:53 AM CDT 9:24 PM CDT
Astronomical Twilight 5:21 AM CDT 9:57 PM CDT
Moon 4:29 PM CDT (7/28) 2:14 AM CDT (7/28)
Length of Visible Light 14h 28m
Length of Day
13h 36m
Waxing Gibbous, 76% of the Moon is Illuminated
Jul 28
Waxing Gibbous
Aug 1
Full
Aug 9
Last Quarter
Aug 17
New
Aug 24
First Quarter

Hourly Weather History & Observations

Time (CDT) Temp. Heat Index Dew Point Humidity Pressure Visibility Wind Dir Wind Speed Gust Speed Precip Events Conditions
12:55 AM 77.0 °F - 72.3 °F 85% 30.06 in 10.0 mi SSE 4.6 mph - N/A   Clear
1:55 AM 75.2 °F - 72.3 °F 91% 30.06 in 10.0 mi Calm Calm - N/A   Clear
2:55 AM 75.9 °F - 73.2 °F 91% 30.05 in 10.0 mi South 4.6 mph - N/A   Clear
3:55 AM 73.4 °F - 73.0 °F 99% 30.07 in 10.0 mi Calm Calm - N/A   Clear
4:55 AM 71.8 °F - 71.6 °F 99% 30.08 in 10.0 mi Calm Calm - N/A   Partly Cloudy
5:22 AM 73.4 °F - 73.4 °F 100% 30.09 in 10.0 mi Calm Calm - N/A   Mostly Cloudy
5:55 AM 74.1 °F - 73.8 °F 99% 30.09 in 10.0 mi Calm Calm - N/A   Mostly Cloudy
6:01 AM 73.4 °F - 73.4 °F 100% 30.09 in 10.0 mi Calm Calm - N/A   Scattered Clouds
6:02 AM 73.4 °F - 73.4 °F 100% 30.09 in 10.0 mi Calm Calm - N/A   Mostly Cloudy
6:04 AM 73.4 °F - 73.4 °F 100% 30.09 in 10.0 mi Calm Calm - N/A   Mostly Cloudy
6:06 AM 73.4 °F - 73.4 °F 100% 30.09 in 10.0 mi Calm Calm - N/A   Scattered Clouds
6:55 AM 73.9 °F - 73.8 °F 99% 30.10 in 10.0 mi Calm Calm - N/A   Clear
7:55 AM 76.1 °F - 75.9 °F 99% 30.10 in 10.0 mi WSW 5.8 mph - N/A   Clear
8:55 AM 79.7 °F - 75.0 °F 86% 30.12 in 10.0 mi SW 6.9 mph - N/A   Partly Cloudy
9:10 AM 80.6 °F 86.2 °F 75.2 °F 84% 30.13 in 10.0 mi Variable 5.8 mph - N/A   Mostly Cloudy
9:43 AM 82.4 °F 88.2 °F 73.4 °F 74% 30.13 in 10.0 mi WSW 6.9 mph - N/A   Mostly Cloudy
9:45 AM 82.4 °F 88.2 °F 73.4 °F 74% 30.13 in 10.0 mi SW 6.9 mph - N/A   Mostly Cloudy
9:48 AM 80.6 °F 85.4 °F 73.4 °F 79% 30.13 in 10.0 mi WSW 6.9 mph - N/A   Scattered Clouds
9:55 AM 82.0 °F 88.1 °F 74.1 °F 77% 30.13 in 10.0 mi SW 8.1 mph - N/A   Scattered Clouds
10:55 AM 85.5 °F 91.8 °F 72.7 °F 65% 30.12 in 10.0 mi Variable 6.9 mph - N/A   Clear
11:55 AM 87.4 °F 94.8 °F 73.0 °F 62% 30.12 in 10.0 mi West 6.9 mph - N/A   Partly Cloudy
12:55 PM 90.9 °F 97.8 °F 71.4 °F 53% 30.11 in 10.0 mi Calm Calm - N/A   Clear
1:55 PM 92.8 °F 98.6 °F 70.0 °F 47% 30.09 in 10.0 mi SSW 5.8 mph - N/A   Scattered Clouds
2:55 PM 94.3 °F 98.7 °F 68.2 °F 42% 30.06 in 10.0 mi Variable 3.5 mph - N/A   Clear
3:55 PM 95.7 °F 99.8 °F 66.9 °F 39% 30.04 in 10.0 mi ESE 4.6 mph - N/A   Clear
4:55 PM 96.4 °F 100.6 °F 66.7 °F 38% 30.02 in 10.0 mi East 8.1 mph - N/A   Clear
5:55 PM 95.9 °F 98.5 °F 64.9 °F 36% 30.00 in 10.0 mi East 8.1 mph - N/A   Clear
6:55 PM 94.6 °F 96.8 °F 64.9 °F 37% 29.99 in 10.0 mi ESE 6.9 mph - N/A   Clear
7:55 PM 90.3 °F 94.3 °F 68.0 °F 48% 30.00 in 10.0 mi ESE 5.8 mph - N/A   Clear
8:55 PM 86.4 °F 89.4 °F 67.3 °F 53% 30.02 in 10.0 mi ESE 8.1 mph - N/A   Clear
9:55 PM 82.2 °F 85.1 °F 68.0 °F 62% 30.04 in 10.0 mi SE 8.1 mph - N/A   Clear
10:55 PM 82.2 °F 84.7 °F 67.3 °F 60% 30.04 in 10.0 mi South 8.1 mph - N/A   Clear
11:55 PM 82.2 °F 86.4 °F 70.5 °F 68% 30.05 in 10.0 mi South 10.4 mph - N/A   Clear